Time,TemperatureF,DewpointF,PressureIn,WindDirection,WindDirectionDegrees,WindSpeedMPH,WindSpeedGustMPH,Humidity,HourlyPrecipIn,Conditions,Clouds,dailyrainin,SoftwareType,DateUTC
2013-09-08 00:01:00,56.7,55.6,29.90,South,183,8.0,18.0,96,0.00,,,0.00,meteohub,2013-09-08 07:01:00,
2013-09-08 00:06:00,56.8,55.8,29.90,South,187,8.0,16.0,96,0.00,,,0.00,meteohub,2013-09-08 07:06:00,
2013-09-08 00:11:00,57.0,55.9,29.90,SSW,193,8.0,16.0,96,0.00,,,0.00,meteohub,2013-09-08 07:11:00,
2013-09-08 00:16:00,57.0,55.9,29.90,South,179,5.0,15.0,96,0.00,,,0.00,meteohub,2013-09-08 07:16:00,
2013-09-08 00:21:00,57.0,55.9,29.90,SSW,193,7.0,13.0,96,0.00,,,0.00,meteohub,2013-09-08 07:21:00,
2013-09-08 00:26:00,57.2,56.1,29.90,SSW,204,14.0,16.0,96,0.00,,,0.00,meteohub,2013-09-08 07:26:00,
2013-09-08 00:31:00,56.8,55.8,29.90,SW,218,9.0,16.0,96,0.00,,,0.00,meteohub,2013-09-08 07:31:00,
2013-09-08 00:36:00,56.8,55.8,29.90,North,359,9.0,14.0,96,0.00,,,0.00,meteohub,2013-09-08 07:36:00,
2013-09-08 00:41:00,56.8,55.8,29.90,South,187,13.0,16.0,96,0.00,,,0.00,meteohub,2013-09-08 07:41:00,
2013-09-08 00:46:00,57.0,55.9,29.90,South,180,6.0,16.0,96,0.00,,,0.00,meteohub,2013-09-08 07:46:00,
2013-09-08 00:51:00,57.2,56.1,29.90,SSW,193,7.0,16.0,96,0.00,,,0.00,meteohub,2013-09-08 07:51:00,
2013-09-08 00:56:00,57.4,56.3,29.90,SSW,199,7.0,16.0,96,0.00,,,0.00,meteohub,2013-09-08 07:56:00,
2013-09-08 01:01:00,57.0,55.9,29.90,SSW,201,7.0,14.0,96,0.00,,,0.00,meteohub,2013-09-08 08:01:00,
2013-09-08 01:06:00,57.0,55.9,29.90,South,183,12.0,14.0,96,0.00,,,0.00,meteohub,2013-09-08 08:06:00,
2013-09-08 01:11:00,56.8,55.8,29.90,SSE,168,5.0,18.0,96,0.00,,,0.00,meteohub,2013-09-08 08:11:00,
2013-09-08 01:16:00,56.8,55.8,29.90,South,186,9.0,18.0,96,0.00,,,0.00,meteohub,2013-09-08 08:16:00,
2013-09-08 01:21:00,56.8,55.8,29.90,SSE,162,4.0,18.0,96,0.00,,,0.00,meteohub,2013-09-08 08:21:00,
2013-09-08 01:26:00,56.8,55.9,29.90,South,178,10.0,16.0,97,0.00,,,0.00,meteohub,2013-09-08 08:26:00,
2013-09-08 01:31:00,56.8,55.9,29.90,SSE,168,7.0,16.0,97,0.00,,,0.00,meteohub,2013-09-08 08:31:00,
2013-09-08 01:36:00,56.8,55.9,29.90,SSE,154,6.0,13.0,97,0.00,,,0.00,meteohub,2013-09-08 08:36:00,
2013-09-08 01:41:00,56.8,55.9,29.90,SSE,164,9.0,13.0,97,0.00,,,0.00,meteohub,2013-09-08 08:41:00,
2013-09-08 01:46:00,56.7,55.6,29.90,South,173,5.0,12.0,96,0.00,,,0.00,meteohub,2013-09-08 08:46:00,
2013-09-08 01:51:00,56.7,55.6,29.90,SSE,160,6.0,12.0,96,0.00,,,0.00,meteohub,2013-09-08 08:51:00,
2013-09-08 01:56:00,56.7,55.6,29.90,SSE,165,7.0,12.0,96,0.00,,,0.00,meteohub,2013-09-08 08:56:00,
2013-09-08 02:01:00,56.8,55.9,29.90,South,187,10.0,14.0,97,0.00,,,0.00,meteohub,2013-09-08 09:01:00,
2013-09-08 02:06:00,56.7,55.6,29.90,South,191,12.0,15.0,96,0.00,,,0.00,meteohub,2013-09-08 09:06:00,
2013-09-08 02:11:00,56.5,55.4,29.90,North,359,10.0,16.0,96,0.00,,,0.00,meteohub,2013-09-08 09:11:00,
2013-09-08 02:17:00,56.5,55.4,29.90,SSW,194,8.0,16.0,96,0.00,,,0.00,meteohub,2013-09-08 09:17:00,
2013-09-08 02:22:00,56.3,55.4,29.90,SW,214,16.0,16.0,97,0.00,,,0.00,meteohub,2013-09-08 09:22:00,
2013-09-08 02:27:00,56.1,55.2,29.90,North,359,11.0,16.0,97,0.00,,,0.00,meteohub,2013-09-08 09:27:00,
2013-09-08 02:32:00,56.5,55.6,29.90,South,183,11.0,16.0,97,0.00,,,0.00,meteohub,2013-09-08 09:32:00,
2013-09-08 02:37:00,56.3,55.4,29.90,South,187,5.0,16.0,97,0.00,,,0.00,meteohub,2013-09-08 09:37:00,
2013-09-08 02:42:00,56.1,55.2,29.90,South,171,7.0,14.0,97,0.00,,,0.00,meteohub,2013-09-08 09:42:00,
2013-09-08 02:47:00,56.5,55.6,29.91,South,181,7.0,15.0,97,0.00,,,0.00,meteohub,2013-09-08 09:47:00,
2013-09-08 02:52:00,56.1,55.2,29.90,SSW,201,10.0,15.0,97,0.00,,,0.00,meteohub,2013-09-08 09:52:00,
2013-09-08 02:57:00,56.1,55.2,29.90,SSW,198,13.0,15.0,97,0.00,,,0.00,meteohub,2013-09-08 09:57:00,
2013-09-08 03:02:00,55.9,55.0,29.90,SW,222,11.0,15.0,97,0.00,,,0.00,meteohub,2013-09-08 10:02:00,
2013-09-08 03:07:00,55.9,55.0,29.90,SSW,192,7.0,16.0,97,0.00,,,0.00,meteohub,2013-09-08 10:07:00,
2013-09-08 03:12:00,55.9,55.0,29.90,SSW,208,11.0,16.0,97,0.00,,,0.00,meteohub,2013-09-08 10:12:00,
2013-09-08 03:17:00,55.9,55.0,29.90,SSW,206,6.0,14.0,97,0.00,,,0.00,meteohub,2013-09-08 10:17:00,
2013-09-08 03:22:00,56.3,55.4,29.90,South,189,6.0,15.0,97,0.00,,,0.00,meteohub,2013-09-08 10:22:00,
2013-09-08 03:27:00,56.3,55.4,29.90,South,187,11.0,15.0,97,0.00,,,0.00,meteohub,2013-09-08 10:27:00,
2013-09-08 03:32:00,56.5,55.6,29.90,SSW,210,10.0,12.0,97,0.00,,,0.00,meteohub,2013-09-08 10:32:00,
2013-09-08 03:37:00,56.3,55.4,29.90,SSW,197,9.0,12.0,97,0.00,,,0.00,meteohub,2013-09-08 10:37:00,
2013-09-08 03:42:00,56.5,55.6,29.90,SSW,193,6.0,12.0,97,0.00,,,0.00,meteohub,2013-09-08 10:42:00,
2013-09-08 03:47:00,56.5,55.6,29.90,South,190,9.0,12.0,97,0.00,,,0.00,meteohub,2013-09-08 10:47:00,
2013-09-08 03:52:00,56.5,55.6,29.90,South,187,5.0,11.0,97,0.00,,,0.00,meteohub,2013-09-08 10:52:00,
2013-09-08 03:57:00,56.5,55.6,29.90,South,183,5.0,10.0,97,0.00,,,0.00,meteohub,2013-09-08 10:57:00,
2013-09-08 04:02:00,56.1,55.2,29.90,SSW,193,7.0,10.0,97,0.00,,,0.00,meteohub,2013-09-08 11:02:00,
2013-09-08 04:07:00,56.1,55.2,29.90,SSW,206,7.0,11.0,97,0.00,,,0.00,meteohub,2013-09-08 11:07:00,
2013-09-08 04:12:00,56.1,55.2,29.90,South,172,7.0,12.0,97,0.00,,,0.00,meteohub,2013-09-08 11:12:00,
2013-09-08 04:17:00,56.1,55.2,29.90,South,191,7.0,12.0,97,0.00,,,0.00,meteohub,2013-09-08 11:17:00,
2013-09-08 04:22:00,56.3,55.4,29.90,South,188,7.0,12.0,97,0.00,,,0.00,meteohub,2013-09-08 11:22:00,
2013-09-08 04:27:00,56.1,55.2,29.91,South,184,8.0,13.0,97,0.00,,,0.00,meteohub,2013-09-08 11:27:00,
2013-09-08 04:32:00,56.3,55.4,29.90,South,175,6.0,13.0,97,0.00,,,0.00,meteohub,2013-09-08 11:32:00,
2013-09-08 04:38:00,56.3,55.4,29.90,South,179,7.0,13.0,97,0.00,,,0.00,meteohub,2013-09-08 11:38:00,
2013-09-08 04:43:00,56.3,55.4,29.90,SSE,158,5.0,12.0,97,0.00,,,0.00,meteohub,2013-09-08 11:43:00,
2013-09-08 04:48:00,56.5,55.6,29.90,South,171,5.0,12.0,97,0.00,,,0.00,meteohub,2013-09-08 11:48:00,
2013-09-08 04:53:00,56.5,55.6,29.90,South,176,5.0,9.0,97,0.00,,,0.00,meteohub,2013-09-08 11:53:00,
2013-09-08 04:58:00,56.5,55.6,29.90,South,178,4.0,9.0,97,0.00,,,0.00,meteohub,2013-09-08 11:58:00,
2013-09-08 05:03:00,56.5,55.6,29.90,South,170,7.0,9.0,97,0.00,,,0.00,meteohub,2013-09-08 12:03:00,
2013-09-08 05:08:00,56.5,55.6,29.90,SSE,157,6.0,9.0,97,0.00,,,0.00,meteohub,2013-09-08 12:08:00,
2013-09-08 05:13:00,56.5,55.6,29.90,SSE,159,7.0,10.0,97,0.00,,,0.00,meteohub,2013-09-08 12:13:00,
2013-09-08 05:18:00,56.7,55.8,29.90,SSE,154,2.0,10.0,97,0.00,,,0.00,meteohub,2013-09-08 12:18:00,
2013-09-08 05:23:00,56.8,55.9,29.90,SSE,160,4.0,10.0,97,0.00,,,0.00,meteohub,2013-09-08 12:23:00,
2013-09-08 05:28:00,56.8,55.9,29.90,SSE,154,4.0,7.0,97,0.00,,,0.00,meteohub,2013-09-08 12:28:00,
2013-09-08 05:33:00,56.7,55.8,29.90,South,179,2.0,7.0,97,0.00,,,0.00,meteohub,2013-09-08 12:33:00,
2013-09-08 05:38:00,56.8,55.9,29.90,SSE,148,3.0,7.0,97,0.00,,,0.00,meteohub,2013-09-08 12:38:00,
2013-09-08 05:43:00,56.8,55.9,29.90,SE,129,6.0,7.0,97,0.00,,,0.00,meteohub,2013-09-08 12:43:00,
2013-09-08 05:48:00,57.0,56.1,29.90,SE,138,5.0,8.0,97,0.00,,,0.00,meteohub,2013-09-08 12:48:00,
2013-09-08 05:54:00,57.2,56.3,29.90,SSE,151,5.0,10.0,97,0.00,,,0.00,meteohub,2013-09-08 12:54:00,
2013-09-08 05:59:00,57.2,56.3,29.90,SSE,158,2.0,10.0,97,0.00,,,0.00,meteohub,2013-09-08 12:59:00,
2013-09-08 06:04:00,57.0,56.1,29.90,SSE,166,6.0,10.0,97,0.00,,,0.00,meteohub,2013-09-08 13:04:00,
2013-09-08 06:09:00,57.0,56.1,29.90,SSE,166,1.0,9.0,97,0.00,,,0.00,meteohub,2013-09-08 13:09:00,
2013-09-08 06:14:00,56.8,55.9,29.90,SSE,165,6.0,8.0,97,0.00,,,0.00,meteohub,2013-09-08 13:14:00,
2013-09-08 06:19:00,56.8,55.9,29.90,SSE,154,5.0,8.0,97,0.00,,,0.00,meteohub,2013-09-08 13:19:00,
2013-09-08 06:24:00,57.0,56.1,29.90,SSE,162,4.0,8.0,97,0.00,,,0.00,meteohub,2013-09-08 13:24:00,
2013-09-08 06:29:00,57.0,56.1,29.90,SSE,160,0.0,8.0,97,0.00,,,0.00,meteohub,2013-09-08 13:29:00,
2013-09-08 06:34:00,57.0,56.1,29.90,SSE,160,4.0,8.0,97,0.00,,,0.00,meteohub,2013-09-08 13:34:00,
2013-09-08 06:39:00,57.0,56.1,29.90,SSE,159,6.0,8.0,97,0.00,,,0.00,meteohub,2013-09-08 13:39:00,
2013-09-08 06:44:00,57.0,56.1,29.91,SSE,162,3.0,8.0,97,0.00,,,0.00,meteohub,2013-09-08 13:44:00,
2013-09-08 06:49:00,57.0,56.1,29.91,SSE,159,2.0,8.0,97,0.00,,,0.00,meteohub,2013-09-08 13:49:00,
2013-09-08 06:54:00,57.2,56.3,29.91,SSE,168,3.0,7.0,97,0.00,,,0.00,meteohub,2013-09-08 13:54:00,
2013-09-08 06:59:00,57.2,56.3,29.91,South,179,6.0,7.0,97,0.00,,,0.00,meteohub,2013-09-08 13:59:00,
2013-09-08 07:04:00,57.0,56.1,29.91,South,170,2.0,8.0,97,0.00,,,0.00,meteohub,2013-09-08 14:04:00,
2013-09-08 07:09:00,57.0,56.1,29.91,South,179,1.0,8.0,97,0.00,,,0.00,meteohub,2013-09-08 14:09:00,
2013-09-08 07:14:00,57.0,56.1,29.91,North,359,2.0,8.0,97,0.00,,,0.00,meteohub,2013-09-08 14:14:00,
2013-09-08 07:19:00,57.0,56.1,29.91,North,359,4.0,8.0,97,0.00,,,0.00,meteohub,2013-09-08 14:19:00,
2013-09-08 07:24:00,57.0,56.1,29.91,SSE,164,1.0,8.0,97,0.00,,,0.00,meteohub,2013-09-08 14:24:00,
2013-09-08 07:30:00,57.4,56.5,29.91,SSE,164,3.0,8.0,97,0.00,,,0.00,meteohub,2013-09-08 14:30:00,
2013-09-08 07:35:00,57.6,56.7,29.91,SSE,162,5.0,7.0,97,0.00,,,0.00,meteohub,2013-09-08 14:35:00,
2013-09-08 07:40:00,57.6,56.7,29.91,SSE,162,7.0,8.0,97,0.00,,,0.00,meteohub,2013-09-08 14:40:00,
2013-09-08 07:45:00,57.4,56.3,29.91,SSE,154,4.0,10.0,96,0.00,,,0.00,meteohub,2013-09-08 14:45:00,
2013-09-08 07:50:00,57.2,56.1,29.91,South,174,6.0,10.0,96,0.00,,,0.00,meteohub,2013-09-08 14:50:00,
2013-09-08 07:55:00,57.2,56.1,29.92,South,176,7.0,8.0,96,0.00,,,0.00,meteohub,2013-09-08 14:55:00,
2013-09-08 08:00:00,57.2,56.1,29.92,SSE,168,4.0,9.0,96,0.00,,,0.00,meteohub,2013-09-08 15:00:00,
2013-09-08 08:05:00,57.4,56.3,29.92,SSE,166,9.0,9.0,96,0.00,,,0.00,meteohub,2013-09-08 15:05:00,
2013-09-08 08:10:00,57.4,56.5,29.92,SSE,164,3.0,9.0,97,0.00,,,0.00,meteohub,2013-09-08 15:10:00,
2013-09-08 08:15:00,57.4,56.3,29.92,South,191,4.0,9.0,96,0.00,,,0.00,meteohub,2013-09-08 15:15:00,
2013-09-08 08:20:00,57.4,56.3,29.92,South,175,4.0,10.0,96,0.00,,,0.00,meteohub,2013-09-08 15:20:00,
2013-09-08 08:25:00,57.6,56.7,29.92,South,188,5.0,10.0,97,0.00,,,0.00,meteohub,2013-09-08 15:25:00,
2013-09-08 08:30:00,57.6,56.5,29.92,South,183,5.0,10.0,96,0.00,,,0.00,meteohub,2013-09-08 15:30:00,
2013-09-08 08:35:00,57.6,56.5,29.92,South,183,7.0,9.0,96,0.00,,,0.00,meteohub,2013-09-08 15:35:00,
2013-09-08 08:40:00,57.7,56.7,29.92,South,183,5.0,9.0,96,0.00,,,0.00,meteohub,2013-09-08 15:40:00,
2013-09-08 08:45:00,57.6,56.5,29.92,SSW,197,5.0,10.0,96,0.00,,,0.00,meteohub,2013-09-08 15:45:00,
2013-09-08 08:50:00,57.7,56.7,29.92,South,174,3.0,10.0,96,0.00,,,0.00,meteohub,2013-09-08 15:50:00,
2013-09-08 08:55:00,57.7,56.7,29.92,SSE,162,3.0,10.0,96,0.00,,,0.00,meteohub,2013-09-08 15:55:00,
2013-09-08 09:01:00,57.9,56.8,29.92,SSE,162,6.0,10.0,96,0.00,,,0.00,meteohub,2013-09-08 16:01:00,
2013-09-08 09:06:00,57.9,56.8,29.92,SSE,161,5.0,10.0,96,0.00,,,0.00,meteohub,2013-09-08 16:06:00,
2013-09-08 09:11:00,58.3,57.2,29.92,SSE,151,5.0,10.0,96,0.00,,,0.00,meteohub,2013-09-08 16:11:00,
2013-09-08 09:16:00,58.8,57.7,29.92,South,177,8.0,11.0,96,0.00,,,0.00,meteohub,2013-09-08 16:16:00,
2013-09-08 09:21:00,58.8,57.4,29.92,South,180,2.0,11.0,95,0.00,,,0.00,meteohub,2013-09-08 16:21:00,
2013-09-08 09:26:00,59.2,57.7,29.92,SSE,162,6.0,11.0,95,0.00,,,0.00,meteohub,2013-09-08 16:26:00,
2013-09-08 09:31:00,59.2,57.7,29.92,SSE,155,4.0,10.0,95,0.00,,,0.00,meteohub,2013-09-08 16:31:00,
2013-09-08 09:36:00,59.2,57.4,29.92,SSE,162,3.0,7.0,94,0.00,,,0.00,meteohub,2013-09-08 16:36:00,
2013-09-08 09:41:00,59.4,57.6,29.92,SSE,151,6.0,8.0,94,0.00,,,0.00,meteohub,2013-09-08 16:41:00,
2013-09-08 09:46:00,59.5,57.7,29.92,SSE,154,2.0,8.0,94,0.00,,,0.00,meteohub,2013-09-08 16:46:00,
2013-09-08 09:51:00,59.7,57.7,29.92,SSE,152,5.0,8.0,93,0.00,,,0.00,meteohub,2013-09-08 16:51:00,
2013-09-08 09:56:00,59.7,57.7,29.92,South,171,3.0,9.0,93,0.00,,,0.00,meteohub,2013-09-08 16:56:00,
2013-09-08 10:01:00,60.1,58.1,29.92,SSE,149,3.0,9.0,93,0.00,,,0.00,meteohub,2013-09-08 17:01:00,
2013-09-08 10:06:00,60.4,58.1,29.92,SE,135,4.0,8.0,92,0.00,,,0.00,meteohub,2013-09-08 17:06:00,
2013-09-08 10:11:00,61.0,58.6,29.92,SSE,162,5.0,9.0,92,0.00,,,0.00,meteohub,2013-09-08 17:11:00,
2013-09-08 10:16:00,61.2,58.5,29.92,SSE,156,3.0,9.0,91,0.00,,,0.00,meteohub,2013-09-08 17:16:00,
2013-09-08 10:21:00,61.3,58.5,29.92,SE,138,5.0,9.0,90,0.00,,,0.00,meteohub,2013-09-08 17:21:00,
2013-09-08 10:26:00,61.5,58.6,29.91,SSE,161,4.0,8.0,90,0.00,,,0.00,meteohub,2013-09-08 17:26:00,
2013-09-08 10:32:00,61.9,59.0,29.92,SSE,159,7.0,10.0,90,0.00,,,0.00,meteohub,2013-09-08 17:32:00,
2013-09-08 10:37:00,61.9,58.6,29.91,SSE,156,3.0,10.0,89,0.00,,,0.00,meteohub,2013-09-08 17:37:00,
2013-09-08 10:42:00,62.4,59.2,29.91,SSE,149,5.0,9.0,89,0.00,,,0.00,meteohub,2013-09-08 17:42:00,
2013-09-08 10:47:00,63.0,59.4,29.91,SSE,160,2.0,9.0,88,0.00,,,0.00,meteohub,2013-09-08 17:47:00,
2013-09-08 10:52:00,63.7,59.7,29.91,SW,219,4.0,8.0,87,0.00,,,0.00,meteohub,2013-09-08 17:52:00,
2013-09-08 10:57:00,63.7,59.0,29.91,SW,214,4.0,7.0,85,0.00,,,0.00,meteohub,2013-09-08 17:57:00,
2013-09-08 11:02:00,64.0,59.4,29.91,SSW,198,5.0,6.0,85,0.00,,,0.00,meteohub,2013-09-08 18:02:00,
2013-09-08 11:07:00,64.4,59.7,29.91,SSW,204,5.0,6.0,85,0.00,,,0.00,meteohub,2013-09-08 18:07:00,
2013-09-08 11:12:00,64.6,59.4,29.91,SSW,199,7.0,8.0,83,0.00,,,0.00,meteohub,2013-09-08 18:12:00,
2013-09-08 11:17:00,64.9,59.7,29.91,South,170,4.0,8.0,83,0.00,,,0.00,meteohub,2013-09-08 18:17:00,
2013-09-08 11:22:00,65.7,60.1,29.91,SSW,193,3.0,8.0,82,0.00,,,0.00,meteohub,2013-09-08 18:22:00,
2013-09-08 11:27:00,65.8,59.9,29.91,SSW,210,4.0,7.0,81,0.00,,,0.00,meteohub,2013-09-08 18:27:00,
2013-09-08 11:32:00,65.7,59.7,29.90,SSW,200,4.0,8.0,81,0.00,,,0.00,meteohub,2013-09-08 18:32:00,
2013-09-08 11:37:00,65.1,58.8,29.90,SSW,193,7.0,9.0,80,0.00,,,0.00,meteohub,2013-09-08 18:37:00,
2013-09-08 11:42:00,65.5,59.9,29.90,SSW,196,6.0,9.0,82,0.00,,,0.00,meteohub,2013-09-08 18:42:00,
2013-09-08 11:47:00,66.2,59.9,29.90,SSW,199,5.0,9.0,80,0.00,,,0.00,meteohub,2013-09-08 18:47:00,
2013-09-08 11:52:00,66.7,59.7,29.90,South,187,4.0,9.0,78,0.00,,,0.00,meteohub,2013-09-08 18:52:00,
2013-09-08 11:57:00,66.4,59.7,29.90,SSW,210,7.0,10.0,79,0.00,,,0.00,meteohub,2013-09-08 18:57:00,
2013-09-08 12:02:00,66.2,59.9,29.90,SW,223,8.0,10.0,80,0.00,,,0.00,meteohub,2013-09-08 19:02:00,
2013-09-08 12:08:00,66.4,60.1,29.90,South,179,9.0,10.0,80,0.00,,,0.00,meteohub,2013-09-08 19:08:00,
2013-09-08 12:13:00,66.0,59.7,29.90,South,179,5.0,11.0,80,0.00,,,0.00,meteohub,2013-09-08 19:13:00,
2013-09-08 12:18:00,66.2,59.5,29.89,SW,215,8.0,11.0,79,0.00,,,0.00,meteohub,2013-09-08 19:18:00,
2013-09-08 12:23:00,65.7,59.7,29.89,SSW,201,11.0,11.0,81,0.00,,,0.00,meteohub,2013-09-08 19:23:00,
2013-09-08 12:28:00,64.9,59.4,29.89,SSW,206,10.0,14.0,82,0.00,,,0.00,meteohub,2013-09-08 19:28:00,
2013-09-08 12:33:00,65.5,59.9,29.89,SSW,207,9.0,14.0,82,0.00,,,0.00,meteohub,2013-09-08 19:33:00,
2013-09-08 12:38:00,65.5,59.5,29.89,SSW,210,9.0,14.0,81,0.00,,,0.00,meteohub,2013-09-08 19:38:00,
2013-09-08 12:43:00,65.7,59.7,29.89,South,180,9.0,12.0,81,0.00,,,0.00,meteohub,2013-09-08 19:43:00,
2013-09-08 12:48:00,65.1,58.8,29.89,SSW,193,5.0,12.0,80,0.00,,,0.00,meteohub,2013-09-08 19:48:00,
2013-09-08 12:53:00,65.5,59.2,29.88,SSW,197,7.0,12.0,80,0.00,,,0.00,meteohub,2013-09-08 19:53:00,
2013-09-08 12:58:00,65.8,59.2,29.88,SSW,199,7.0,13.0,79,0.00,,,0.00,meteohub,2013-09-08 19:58:00,
2013-09-08 13:03:00,66.6,59.5,29.88,South,179,8.0,13.0,78,0.00,,,0.00,meteohub,2013-09-08 20:03:00,
2013-09-08 13:08:00,66.7,59.4,29.88,South,181,7.0,12.0,77,0.00,,,0.00,meteohub,2013-09-08 20:08:00,
2013-09-08 13:13:00,67.6,59.7,29.88,South,191,6.0,12.0,76,0.00,,,0.00,meteohub,2013-09-08 20:13:00,
2013-09-08 13:18:00,68.0,59.7,29.87,South,189,6.0,11.0,75,0.00,,,0.00,meteohub,2013-09-08 20:18:00,
2013-09-08 13:23:00,68.4,60.1,29.87,South,181,2.0,10.0,75,0.00,,,0.00,meteohub,2013-09-08 20:23:00,
2013-09-08 13:28:00,68.4,59.0,29.87,SSE,150,5.0,10.0,72,0.00,,,0.00,meteohub,2013-09-08 20:28:00,
2013-09-08 13:34:00,68.2,58.8,29.87,SSE,164,6.0,11.0,72,0.00,,,0.00,meteohub,2013-09-08 20:34:00,
2013-09-08 13:39:00,67.8,58.5,29.87,SSE,147,5.0,11.0,72,0.00,,,0.00,meteohub,2013-09-08 20:39:00,
2013-09-08 13:44:00,68.2,59.5,29.87,South,173,4.0,11.0,74,0.00,,,0.00,meteohub,2013-09-08 20:44:00,
2013-09-08 13:49:00,67.8,59.2,29.86,South,187,7.0,10.0,74,0.00,,,0.00,meteohub,2013-09-08 20:49:00,
2013-09-08 13:54:00,67.8,59.2,29.86,SSE,162,6.0,11.0,74,0.00,,,0.00,meteohub,2013-09-08 20:54:00,
2013-09-08 13:59:00,68.2,59.2,29.86,SSE,153,7.0,12.0,73,0.00,,,0.00,meteohub,2013-09-08 20:59:00,
2013-09-08 14:04:00,68.2,59.2,29.86,South,189,9.0,12.0,73,0.00,,,0.00,meteohub,2013-09-08 21:04:00,
2013-09-08 14:09:00,68.2,59.5,29.86,South,174,7.0,12.0,74,0.00,,,0.00,meteohub,2013-09-08 21:09:00,
2013-09-08 14:14:00,68.9,59.2,29.86,SSE,161,6.0,12.0,71,0.00,,,0.00,meteohub,2013-09-08 21:14:00,
2013-09-08 14:19:00,68.9,59.2,29.86,SE,143,9.0,12.0,71,0.00,,,0.00,meteohub,2013-09-08 21:19:00,
2013-09-08 14:24:00,68.5,59.2,29.86,South,173,6.0,11.0,72,0.00,,,0.00,meteohub,2013-09-08 21:24:00,
2013-09-08 14:29:00,68.7,59.4,29.86,South,179,8.0,11.0,72,0.00,,,0.00,meteohub,2013-09-08 21:29:00,
2013-09-08 14:34:00,68.4,59.0,29.85,South,170,6.0,11.0,72,0.00,,,0.00,meteohub,2013-09-08 21:34:00,
2013-09-08 14:39:00,68.4,59.0,29.85,SSE,161,5.0,12.0,72,0.00,,,0.00,meteohub,2013-09-08 21:39:00,
2013-09-08 14:44:00,68.4,59.0,29.85,SE,140,8.0,12.0,72,0.00,,,0.00,meteohub,2013-09-08 21:44:00,
2013-09-08 14:49:00,67.8,58.5,29.85,SE,135,6.0,12.0,72,0.00,,,0.00,meteohub,2013-09-08 21:49:00,
2013-09-08 14:54:00,68.2,58.8,29.85,SE,129,8.0,13.0,72,0.00,,,0.00,meteohub,2013-09-08 21:54:00,
2013-09-08 14:59:00,68.0,57.9,29.84,SE,131,7.0,13.0,70,0.00,,,0.00,meteohub,2013-09-08 21:59:00,
2013-09-08 15:05:00,68.5,58.8,29.84,SSE,149,11.0,14.0,71,0.00,,,0.00,meteohub,2013-09-08 22:05:00,
2013-09-08 15:10:00,67.5,58.1,29.84,SE,125,11.0,14.0,72,0.00,,,0.00,meteohub,2013-09-08 22:10:00,
2013-09-08 15:15:00,67.3,58.6,29.84,SE,142,8.0,17.0,74,0.00,,,0.00,meteohub,2013-09-08 22:15:00,
2013-09-08 15:20:00,66.7,58.6,29.83,SE,142,6.0,17.0,75,0.00,,,0.00,meteohub,2013-09-08 22:20:00,
2013-09-08 15:25:00,66.9,58.8,29.83,South,179,9.0,17.0,75,0.00,,,0.00,meteohub,2013-09-08 22:25:00,
2013-09-08 15:30:00,66.6,59.2,29.83,SSE,148,14.0,15.0,77,0.00,,,0.00,meteohub,2013-09-08 22:30:00,
2013-09-08 15:35:00,66.4,58.6,29.83,SSE,155,12.0,14.0,76,0.00,,,0.00,meteohub,2013-09-08 22:35:00,
2013-09-08 15:40:00,66.6,58.8,29.83,SSE,152,8.0,14.0,76,0.00,,,0.00,meteohub,2013-09-08 22:40:00,
2013-09-08 15:45:00,66.6,58.8,29.83,South,177,8.0,14.0,76,0.00,,,0.00,meteohub,2013-09-08 22:45:00,
2013-09-08 15:50:00,66.0,58.3,29.82,ESE,106,10.0,15.0,76,0.00,,,0.00,meteohub,2013-09-08 22:50:00,
2013-09-08 15:55:00,66.2,58.5,29.82,SE,125,15.0,15.0,76,0.00,,,0.00,meteohub,2013-09-08 22:55:00,
2013-09-08 16:00:00,66.4,58.6,29.82,SSE,151,10.0,15.0,76,0.00,,,0.00,meteohub,2013-09-08 23:00:00,
2013-09-08 16:05:00,66.7,59.0,29.82,SSE,164,8.0,15.0,76,0.00,,,0.00,meteohub,2013-09-08 23:05:00,
2013-09-08 16:10:00,66.7,58.1,29.82,SE,145,8.0,15.0,74,0.00,,,0.00,meteohub,2013-09-08 23:10:00,
2013-09-08 16:15:00,66.4,58.3,29.81,SSE,157,14.0,14.0,75,0.00,,,0.00,meteohub,2013-09-08 23:15:00,
2013-09-08 16:20:00,66.0,58.3,29.81,SSE,167,5.0,15.0,76,0.00,,,0.00,meteohub,2013-09-08 23:20:00,
2013-09-08 16:25:00,66.0,57.9,29.81,SSE,164,13.0,15.0,75,0.00,,,0.00,meteohub,2013-09-08 23:25:00,
2013-09-08 16:30:00,65.7,58.3,29.81,SSE,152,8.0,15.0,77,0.00,,,0.00,meteohub,2013-09-08 23:30:00,
2013-09-08 16:35:00,65.7,58.3,29.81,SSE,150,7.0,15.0,77,0.00,,,0.00,meteohub,2013-09-08 23:35:00,
2013-09-08 16:40:00,65.8,58.1,29.81,SSE,158,10.0,15.0,76,0.00,,,0.00,meteohub,2013-09-08 23:40:00,
2013-09-08 16:45:00,65.7,58.3,29.81,SE,135,11.0,14.0,77,0.00,,,0.00,meteohub,2013-09-08 23:45:00,
2013-09-08 16:50:00,65.8,58.5,29.81,SE,129,11.0,14.0,77,0.00,,,0.00,meteohub,2013-09-08 23:50:00,
2013-09-08 16:55:00,65.5,58.1,29.81,SE,128,7.0,14.0,77,0.00,,,0.00,meteohub,2013-09-08 23:55:00,
2013-09-08 17:00:00,65.5,58.5,29.81,SE,135,11.0,15.0,78,0.00,,,0.00,meteohub,2013-09-09 00:00:00,
2013-09-08 17:05:00,65.3,58.6,29.81,SE,142,16.0,16.0,79,0.00,,,0.00,meteohub,2013-09-09 00:05:00,
2013-09-08 17:10:00,64.0,58.1,29.81,SE,145,6.0,16.0,81,0.00,,,0.00,meteohub,2013-09-09 00:10:00,
2013-09-08 17:15:00,63.7,58.5,29.81,SE,125,11.0,16.0,83,0.00,,,0.00,meteohub,2013-09-09 00:15:00,
2013-09-08 17:21:00,64.0,58.1,29.81,SSE,152,10.0,16.0,81,0.00,,,0.00,meteohub,2013-09-09 00:21:00,
2013-09-08 17:26:00,64.0,58.1,29.81,SSE,158,8.0,16.0,81,0.00,,,0.00,meteohub,2013-09-09 00:26:00,
2013-09-08 17:31:00,63.3,57.7,29.81,SE,132,13.0,16.0,82,0.00,,,0.00,meteohub,2013-09-09 00:31:00,
2013-09-08 17:36:00,63.5,57.9,29.81,South,169,5.0,17.0,82,0.00,,,0.00,meteohub,2013-09-09 00:36:00,
2013-09-08 17:41:00,63.7,58.1,29.81,SSE,151,6.0,17.0,82,0.00,,,0.00,meteohub,2013-09-09 00:41:00,
2013-09-08 17:46:00,63.5,57.6,29.81,SE,135,8.0,17.0,81,0.00,,,0.00,meteohub,2013-09-09 00:46:00,
2013-09-08 17:51:00,63.1,57.6,29.81,SE,132,9.0,18.0,82,0.00,,,0.00,meteohub,2013-09-09 00:51:00,
2013-09-08 17:56:00,62.8,57.6,29.81,SSE,156,9.0,18.0,83,0.00,,,0.00,meteohub,2013-09-09 00:56:00,
2013-09-08 18:01:00,62.8,57.6,29.81,SSE,154,10.0,18.0,83,0.00,,,0.00,meteohub,2013-09-09 01:01:00,
2013-09-08 18:06:00,62.8,57.9,29.81,SSE,147,10.0,16.0,84,0.00,,,0.00,meteohub,2013-09-09 01:06:00,
2013-09-08 18:11:00,62.6,57.7,29.81,SE,144,15.0,15.0,84,0.00,,,0.00,meteohub,2013-09-09 01:11:00,
2013-09-08 18:16:00,62.2,57.7,29.81,SSE,147,9.0,15.0,85,0.00,,,0.00,meteohub,2013-09-09 01:16:00,
2013-09-08 18:21:00,62.1,57.6,29.81,SE,131,8.0,15.0,85,0.00,,,0.00,meteohub,2013-09-09 01:21:00,
2013-09-08 18:26:00,62.1,57.6,29.81,SE,127,13.0,15.0,85,0.00,,,0.00,meteohub,2013-09-09 01:26:00,
2013-09-08 18:31:00,61.9,57.4,29.80,SE,137,8.0,15.0,85,0.00,,,0.00,meteohub,2013-09-09 01:31:00,
2013-09-08 18:36:00,61.9,57.4,29.80,SSE,150,8.0,16.0,85,0.00,,,0.00,meteohub,2013-09-09 01:36:00,
2013-09-08 18:41:00,61.7,57.4,29.80,SE,125,7.0,16.0,86,0.00,,,0.00,meteohub,2013-09-09 01:41:00,
2013-09-08 18:46:00,61.5,57.4,29.80,SSE,155,11.0,16.0,86,0.00,,,0.00,meteohub,2013-09-09 01:46:00,
2013-09-08 18:51:00,61.3,57.2,29.80,SSE,154,4.0,16.0,86,0.00,,,0.00,meteohub,2013-09-09 01:51:00,
2013-09-08 18:56:00,61.2,57.0,29.80,SE,141,6.0,15.0,86,0.00,,,0.00,meteohub,2013-09-09 01:56:00,
2013-09-08 19:01:00,61.0,56.8,29.80,SSE,154,8.0,13.0,86,0.00,,,0.00,meteohub,2013-09-09 02:01:00,
2013-09-08 19:06:00,61.2,56.7,29.80,SSE,163,7.0,13.0,85,0.00,,,0.00,meteohub,2013-09-09 02:06:00,
2013-09-08 19:11:00,61.0,56.8,29.80,SSE,154,5.0,13.0,86,0.00,,,0.00,meteohub,2013-09-09 02:11:00,
2013-09-08 19:16:00,61.0,56.8,29.81,SSE,148,10.0,13.0,86,0.00,,,0.00,meteohub,2013-09-09 02:16:00,
2013-09-08 19:21:00,60.8,56.7,29.81,SE,139,8.0,13.0,86,0.00,,,0.00,meteohub,2013-09-09 02:21:00,
2013-09-08 19:26:00,60.6,56.7,29.80,SSE,147,9.0,12.0,87,0.00,,,0.00,meteohub,2013-09-09 02:26:00,
2013-09-08 19:31:00,60.4,56.5,29.81,SSE,164,6.0,13.0,87,0.00,,,0.00,meteohub,2013-09-09 02:31:00,
2013-09-08 19:36:00,60.3,56.7,29.81,SE,142,6.0,13.0,88,0.00,,,0.00,meteohub,2013-09-09 02:36:00,
2013-09-08 19:42:00,60.3,56.7,29.81,SE,143,4.0,13.0,88,0.00,,,0.00,meteohub,2013-09-09 02:42:00,
2013-09-08 19:47:00,60.1,56.5,29.81,SE,144,8.0,13.0,88,0.00,,,0.00,meteohub,2013-09-09 02:47:00,
2013-09-08 19:52:00,60.1,56.5,29.81,SE,139,9.0,13.0,88,0.00,,,0.00,meteohub,2013-09-09 02:52:00,
2013-09-08 19:57:00,60.1,56.5,29.81,SE,131,8.0,13.0,88,0.00,,,0.00,meteohub,2013-09-09 02:57:00,
2013-09-08 20:02:00,59.9,56.3,29.81,SSE,149,8.0,13.0,88,0.00,,,0.00,meteohub,2013-09-09 03:02:00,
2013-09-08 20:07:00,60.1,56.5,29.81,SE,141,7.0,13.0,88,0.00,,,0.00,meteohub,2013-09-09 03:07:00,
2013-09-08 20:12:00,60.3,56.7,29.81,SE,145,8.0,13.0,88,0.00,,,0.00,meteohub,2013-09-09 03:12:00,
2013-09-08 20:17:00,60.3,56.7,29.81,SE,142,4.0,11.0,88,0.00,,,0.00,meteohub,2013-09-09 03:17:00,
2013-09-08 20:22:00,60.3,56.7,29.81,SE,136,5.0,10.0,88,0.00,,,0.00,meteohub,2013-09-09 03:22:00,
2013-09-08 20:27:00,60.3,56.7,29.81,SE,135,7.0,11.0,88,0.00,,,0.00,meteohub,2013-09-09 03:27:00,
2013-09-08 20:32:00,60.1,56.5,29.82,SE,133,9.0,12.0,88,0.00,,,0.00,meteohub,2013-09-09 03:32:00,
2013-09-08 20:37:00,59.9,56.3,29.82,SE,129,6.0,12.0,88,0.00,,,0.00,meteohub,2013-09-09 03:37:00,
2013-09-08 20:42:00,59.7,56.5,29.82,SE,124,4.0,13.0,89,0.00,,,0.00,meteohub,2013-09-09 03:42:00,
2013-09-08 20:47:00,59.7,56.5,29.82,SE,137,7.0,13.0,89,0.00,,,0.00,meteohub,2013-09-09 03:47:00,
2013-09-08 20:52:00,59.7,56.5,29.83,ESE,121,5.0,12.0,89,0.00,,,0.00,meteohub,2013-09-09 03:52:00,
2013-09-08 20:57:00,59.7,56.8,29.83,SSE,160,6.0,12.0,90,0.00,,,0.00,meteohub,2013-09-09 03:57:00,
2013-09-08 21:01:00,59.5,56.7,29.82,SE,132,9.0,12.0,90,0.00,,,0.00,meteohub,2013-09-09 04:01:00,
2013-09-08 21:02:00,59.5,56.3,29.82,SSE,152,5.0,12.0,89,0.00,,,0.00,meteohub,2013-09-09 04:02:00,
2013-09-08 21:03:00,59.5,56.3,29.83,SE,130,6.0,12.0,89,0.00,,,0.00,meteohub,2013-09-09 04:03:00,
2013-09-08 21:04:00,59.5,56.7,29.82,SE,130,5.0,12.0,90,0.00,,,0.00,meteohub,2013-09-09 04:04:00,
2013-09-08 21:07:00,59.5,56.7,29.82,SE,137,6.0,11.0,90,0.00,,,0.00,meteohub,2013-09-09 04:07:00,
2013-09-08 21:12:00,59.5,56.7,29.82,SE,130,6.0,11.0,90,0.00,,,0.00,meteohub,2013-09-09 04:12:00,
2013-09-08 21:17:00,59.5,56.7,29.82,SSE,147,5.0,11.0,90,0.00,,,0.00,meteohub,2013-09-09 04:17:00,
2013-09-08 21:22:00,59.7,56.8,29.83,SE,137,8.0,10.0,90,0.00,,,0.00,meteohub,2013-09-09 04:22:00,
2013-09-08 21:27:00,59.7,56.8,29.83,SE,139,5.0,10.0,90,0.00,,,0.00,meteohub,2013-09-09 04:27:00,
2013-09-08 21:32:00,59.7,56.8,29.83,SSE,156,4.0,10.0,90,0.00,,,0.00,meteohub,2013-09-09 04:32:00,
2013-09-08 21:37:00,59.5,56.7,29.83,SE,142,3.0,10.0,90,0.00,,,0.00,meteohub,2013-09-09 04:37:00,
2013-09-08 21:42:00,59.5,56.7,29.82,SSE,160,9.0,10.0,90,0.00,,,0.00,meteohub,2013-09-09 04:42:00,
2013-09-08 21:47:00,59.5,56.7,29.82,SE,137,5.0,10.0,90,0.00,,,0.00,meteohub,2013-09-09 04:47:00,
2013-09-08 21:52:00,59.5,56.7,29.83,SE,141,7.0,10.0,90,0.00,,,0.00,meteohub,2013-09-09 04:52:00,
2013-09-08 21:57:00,59.5,56.7,29.83,SE,134,11.0,11.0,90,0.00,,,0.00,meteohub,2013-09-09 04:57:00,
2013-09-08 22:02:00,59.5,56.7,29.83,SSE,165,8.0,12.0,90,0.00,,,0.00,meteohub,2013-09-09 05:02:00,
2013-09-08 22:07:00,59.4,56.5,29.83,SSE,160,7.0,12.0,90,0.00,,,0.00,meteohub,2013-09-09 05:07:00,
2013-09-08 22:12:00,59.0,56.1,29.83,SSE,165,7.0,12.0,90,0.00,,,0.00,meteohub,2013-09-09 05:12:00,
2013-09-08 22:17:00,58.8,56.1,29.83,South,179,8.0,12.0,91,0.00,,,0.00,meteohub,2013-09-09 05:17:00,
2013-09-08 22:22:00,58.5,55.8,29.83,South,181,7.0,12.0,91,0.00,,,0.00,meteohub,2013-09-09 05:22:00,
2013-09-08 22:27:00,57.9,55.2,29.83,South,174,11.0,13.0,91,0.00,,,0.00,meteohub,2013-09-09 05:27:00,
2013-09-08 22:32:00,57.4,55.0,29.83,SSW,201,9.0,14.0,92,0.00,,,0.00,meteohub,2013-09-09 05:32:00,
2013-09-08 22:37:00,56.8,54.9,29.83,SSE,167,11.0,15.0,93,0.00,,,0.00,meteohub,2013-09-09 05:37:00,
2013-09-08 22:42:00,56.8,55.2,29.83,South,187,8.0,16.0,94,0.00,,,0.00,meteohub,2013-09-09 05:42:00,
2013-09-08 22:47:00,56.7,55.0,29.83,South,186,7.0,16.0,94,0.00,,,0.00,meteohub,2013-09-09 05:47:00,
2013-09-08 22:52:00,56.7,55.0,29.83,South,189,7.0,16.0,94,0.00,,,0.00,meteohub,2013-09-09 05:52:00,
2013-09-08 22:58:00,56.7,55.0,29.83,South,191,6.0,14.0,94,0.00,,,0.00,meteohub,2013-09-09 05:58:00,
2013-09-08 23:03:00,56.7,55.0,29.83,SSW,195,11.0,14.0,94,0.00,,,0.00,meteohub,2013-09-09 06:03:00,
2013-09-08 23:08:00,56.5,54.9,29.83,SSW,203,9.0,14.0,94,0.00,,,0.00,meteohub,2013-09-09 06:08:00,
2013-09-08 23:13:00,56.7,55.2,29.84,SSW,201,8.0,15.0,95,0.00,,,0.00,meteohub,2013-09-09 06:13:00,
2013-09-08 23:18:00,56.7,55.2,29.84,South,178,10.0,15.0,95,0.00,,,0.00,meteohub,2013-09-09 06:18:00,
2013-09-08 23:23:00,56.7,55.2,29.84,SSW,194,10.0,15.0,95,0.00,,,0.00,meteohub,2013-09-09 06:23:00,
2013-09-08 23:28:00,56.8,55.4,29.84,North,359,8.0,13.0,95,0.00,,,0.00,meteohub,2013-09-09 06:28:00,
2013-09-08 23:33:00,57.0,55.6,29.84,South,179,7.0,14.0,95,0.00,,,0.00,meteohub,2013-09-09 06:33:00,
2013-09-08 23:38:00,57.0,55.6,29.84,South,189,8.0,14.0,95,0.00,,,0.00,meteohub,2013-09-09 06:38:00,
2013-09-08 23:43:00,56.8,55.4,29.84,North,359,6.0,14.0,95,0.00,,,0.00,meteohub,2013-09-09 06:43:00,
2013-09-08 23:48:00,56.8,55.4,29.84,SSW,201,10.0,12.0,95,0.00,,,0.00,meteohub,2013-09-09 06:48:00,
2013-09-08 23:53:00,56.8,55.4,29.83,South,176,6.0,12.0,95,0.00,,,0.00,meteohub,2013-09-09 06:53:00,
2013-09-08 23:58:00,56.8,55.4,29.84,South,170,9.0,12.0,95,0.00,,,0.00,meteohub,2013-09-09 06:58:00,